Showing default

KUIPER-00294, 68594

Orbit data source: Space-Track

KUIPER-00294, 68594 is a payload satellite owned by Kuiper Systems (US) in LEO that was launched on Sat, 04 Apr 2026 UTC via an ATLAS V 551 launch vehicle from the Air Force Eastern Test Range (AFETR). Payload-class satellites include a variety of spacecraft equipped with specific instruments for various scientific and technological missions. These include communications satellites like Starlink; space stations such as the ISS; scientific satellites like the Hubble; Earth observation satellites from companies like Planet Labs, Umbra, and HawkEye 360; GPS; miniature CubeSats for education and research; and military/defense satellites.

Loading next visibility...
Identifier
68594, 2026-072X
Orbit
LEO
Country
Flag of USUS
Related business
Manufacturer
Kuiper Systems
Mission
Operational spacecraft
Bus & Motor
KUIPER, Unknown motor
Mass
~490 kg wet, ~490 kg dry
Launch date (UTC)
2026-04-04 (2 months ago)
Launch vehicle
ATLAS V 551
Launch site
Air Force Eastern Test Range (AFETR)
Object type
Payload
Rocket body
Debris
Shape & HBR
Unknown shape, 3.4 m
Radar Cross Section
Large (>1 m²)

Expand to show TLE details & history
Last TLE update: 17 hours ago

TLE from 17 hours ago
0 KUIPER-00294
1 68594U 26072X   26149.91570897 -.00000688  00000-0 -81389-5 0  9995
2 68594  51.8691 265.6818 0012092 324.9259  35.0930 15.36388609  8566
Epoch: 2026-05-29T21:58Z
TLE epoch observation values (Epoch: 2026-05-29T21:58:37.255Z)
Latitude
-0.00004°
Longitude
48.58731°
Altitude
450.802 km
Speed
7.647 km/s
True Right ascension
17h 42m 43s
True Declination
0° 00' 00"
Sunlit
Object was in full shadow at epoch
Visualization orbit readout
Latitude
Unknown
Longitude
Unknown
Altitude
Unknown
Speed
Unknown
Apparent Right ascension
Unknown
Apparent Declination
Unknown
Sunlit
N/A
Visualization observer readout
Local Sidereal Time
00:45:28
Azimuth
Unknown
Elevation
Unknown
Doppler factor
Unknown
Orbital elements
Apogee altitude
465.532 km
Perigee altitude
449.001 km
Semi-major axis
6,835.403 km
Eccentricity
0.00121
Inclination
51.8691°
RAAN
265.6818°
Arg. of periapsis
324.9259°
True anomaly
35.17276°
Mean anomaly
35.093°
Eccentric anomaly
35.13287°
Mean motion
3.84058 °/min
Orbital period
93.74 mins
BSTAR
-0.0000081389
Loading maneuver chart data...
Computing Atmospheric mass density...
Loading historical data...
Loading historical data...
Loading historical data...
Loading historical data...
Loading historical data...
Loading historical data...
Loading historical data...

Documentation

Showing up to 5 results
|